GW2646 Weather Reports


time (UTC)temp
C
wind
direction
speed
KPH
gust
KPH
rain 1hr
cm
rain 24hr
cm
rain mn
cm
humidity
%
barometer
mb
20260503212049 25 300 4.8 14.5 0.00 0.00 0.00 50 1011.7
20260503211550 25 221 3.2 16.1 0.00 0.00 0.00 50 1011.8
20260503211048 24 263 4.8 16.1 0.00 0.00 0.00 49 1011.9
20260503210548 24 315 4.8 16.1 0.00 0.00 0.00 50 1011.9
20260503205548 25 273 1.6 1.6 0.00 0.00 0.00 51 1012.0
20260503131045 9 0 0.0 0.0 0.00 0.00 0.00 94 1014.0
20260503130545 10 0 0.0 0.0 0.00 0.00 0.00 94 1014.1
20260503110545 10 0 0.0 0.0 0.00 0.00 0.00 93 1014.4
20260503081627 11 0 0.0 0.0 0.00 0.00 0.00 87 1014.6
20260503081047 11 0 0.0 0.0 0.00 0.00 0.00 87 1014.5
20260503080547 11 0 0.0 0.0 0.00 0.00 0.00 86 1014.5
20260503080111 11 0 0.0 0.0 0.00 0.00 0.00 86 1014.5
20260503072546 11 0 0.0 1.6 0.00 0.00 0.00 84 1014.7
20260503072047 11 0 0.0 1.6 0.00 0.00 0.00 84 1014.6
20260503071554 11 0 0.0 1.6 0.00 0.00 0.00 83 1014.6
20260503071047 11 0 0.0 0.0 0.00 0.00 0.00 83 1014.6
20260503070549 11 0 0.0 1.6 0.00 0.00 0.00 83 1014.6
20260503055046 13 0 0.0 1.6 0.00 0.00 0.00 77 1014.3
20260503054600 13 0 0.0 1.6 0.00 0.00 0.00 77 1014.2
20260503054046 13 0 0.0 3.2 0.00 0.00 0.00 77 1014.2
20260503053545 13 0 0.0 3.2 0.00 0.00 0.00 77 1014.2
20260503053058 13 0 0.0 0.0 0.00 0.00 0.00 76 1014.3
20260503052544 14 0 0.0 0.0 0.00 0.00 0.00 75 1014.3
20260503052046 14 0 0.0 1.6 0.00 0.00 0.00 74 1014.3
20260503051553 15 0 0.0 1.6 0.00 0.00 0.00 73 1014.2
20260503051046 15 253 0.0 0.0 0.00 0.00 0.00 72 1014.2
20260503050546 15 0 0.0 1.6 0.00 0.00 0.00 69 1014.1
20260503050053 16 0 0.0 1.6 0.00 0.00 0.00 69 1014.1
20260503045547 16 0 0.0 1.6 0.00 0.00 0.00 67 1014.1
20260503045046 16 0 0.0 0.0 0.00 0.00 0.00 67 1014.0
20260503044552 16 0 0.0 1.6 0.00 0.00 0.00 67 1014.0
20260503044045 16 0 0.0 1.6 0.00 0.00 0.00 66 1013.9
20260503043545 16 0 0.0 3.2 0.00 0.00 0.00 66 1013.9
20260503043051 16 0 0.0 3.2 0.00 0.00 0.00 66 1014.0
20260503042544 16 0 0.0 3.2 0.00 0.00 0.00 66 1013.9
20260503042049 17 0 0.0 3.2 0.00 0.00 0.00 65 1013.8
20260503041552 17 0 0.0 4.8 0.00 0.00 0.00 65 1013.7
20260503041047 17 254 0.0 4.8 0.00 0.00 0.00 64 1013.6
20260503040545 17 256 0.0 4.8 0.00 0.00 0.00 64 1013.6
20260503040051 17 267 0.0 3.2 0.00 0.00 0.00 63 1013.6
20260503035549 17 0 0.0 1.6 0.00 0.00 0.00 63 1013.6
20260503035048 17 0 0.0 3.2 0.00 0.00 0.00 62 1013.5
20260503034551 18 0 0.0 3.2 0.00 0.00 0.00 61 1013.4
20260503034046 18 0 0.0 3.2 0.00 0.00 0.00 60 1013.3
20260503033546 18 0 0.0 3.2 0.00 0.00 0.00 60 1013.3
20260503033103 18 259 0.0 6.4 0.00 0.00 0.00 59 1013.2
20260503032547 19 0 0.0 6.4 0.00 0.00 0.00 58 1013.1
20260503032050 19 0 0.0 4.8 0.00 0.00 0.00 57 1013.2
20260503031556 20 0 0.0 4.8 0.00 0.00 0.00 56 1013.2
20260503031046 20 0 0.0 4.8 0.00 0.00 0.00 55 1013.1
20260503030548 20 0 0.0 4.8 0.00 0.00 0.00 55 1013.0
20260503030104 20 0 0.0 6.4 0.00 0.00 0.00 54 1013.0
20260503025545 20 0 1.6 6.4 0.00 0.00 0.00 53 1013.0
20260503025047 21 0 1.6 6.4 0.00 0.00 0.00 53 1012.9
20260503024618 21 0 0.0 9.7 0.00 0.00 0.00 52 1012.9
20260503024044 21 306 1.6 9.7 0.00 0.00 0.00 52 1012.9
20260503023549 21 243 1.6 6.4 0.00 0.00 0.00 51 1012.8
20260503023053 21 0 0.0 6.4 0.00 0.00 0.00 50 1012.8
20260503022549 21 324 1.6 9.7 0.00 0.00 0.00 50 1012.9
20260503022048 21 276 1.6 11.3 0.00 0.00 0.00 50 1012.8
20260503021558 21 305 3.2 11.3 0.00 0.00 0.00 49 1012.8
20260503021048 22 276 1.6 12.9 0.00 0.00 0.00 48 1012.9
20260503020551 22 304 3.2 12.9 0.00 0.00 0.00 48 1012.9
20260503020050 22 323 3.2 11.3 0.00 0.00 0.00 47 1012.8
20260503015551 22 305 3.2 11.3 0.00 0.00 0.00 47 1012.9
20260503015047 22 307 3.2 12.9 0.00 0.00 0.00 47 1012.9
20260503014553 22 299 1.6 12.9 0.00 0.00 0.00 46 1012.9
20260503014048 23 307 1.6 8.0 0.00 0.00 0.00 46 1013.0
20260503013550 23 0 1.6 8.0 0.00 0.00 0.00 46 1013.0
20260503013050 23 294 0.0 9.7 0.00 0.00 0.00 46 1013.1
20260503012554 23 316 3.2 9.7 0.00 0.00 0.00 46 1013.1
20260503012047 23 309 3.2 11.3 0.00 0.00 0.00 46 1013.0
20260503011559 23 317 3.2 12.9 0.00 0.00 0.00 46 1013.0
20260503011049 23 344 3.2 12.9 0.00 0.00 0.00 47 1013.1
20260503010548 23 349 3.2 12.9 0.00 0.00 0.00 46 1013.1
20260503010051 22 334 3.2 12.9 0.00 0.00 0.00 46 1013.2
20260503005548 22 283 3.2 16.1 0.00 0.00 0.00 47 1013.3
20260503005048 22 318 6.4 16.1 0.00 0.00 0.00 47 1013.4
20260503004618 22 313 4.8 16.1 0.00 0.00 0.00 46 1013.4
20260503004047 22 294 4.8 17.7 0.00 0.00 0.00 46 1013.5
20260503003548 22 296 4.8 17.7 0.00 0.00 0.00 46 1013.4
20260503003051 22 303 6.4 12.9 0.00 0.00 0.00 47 1013.4
20260503002551 22 348 4.8 19.3 0.00 0.00 0.00 47 1013.4
20260503002048 22 279 4.8 19.3 0.00 0.00 0.00 49 1013.3
20260503001600 22 315 6.4 19.3 0.00 0.00 0.00 50 1013.3
20260503001048 22 294 8.0 17.7 0.00 0.00 0.00 51 1013.3
20260503000547 22 260 8.0 17.7 0.00 0.00 0.00 51 1013.5
20260503000106 22 265 8.0 17.7 0.00 0.00 0.00 50 1013.5
20260502235548 22 303 6.4 17.7 0.00 0.00 0.00 52 1013.6
20260502235048 22 296 6.4 17.7 0.00 0.00 0.00 51 1013.6
20260502234616 23 286 6.4 16.1 0.00 0.00 0.00 50 1013.6
20260502234048 22 0 3.2 16.1 0.00 0.00 0.00 52 1013.7
20260502233547 22 16 6.4 19.3 0.00 0.00 0.00 51 1013.7
20260502233108 22 277 6.4 19.3 0.00 0.00 0.00 52 1013.7
20260502232548 23 295 1.6 14.5 0.00 0.00 0.00 48 1013.7
20260502232048 22 307 4.8 14.5 0.00 0.00 0.00 51 1013.7
20260502231606 22 242 4.8 14.5 0.00 0.00 0.00 51 1013.8
20260502231051 23 244 1.6 12.9 0.00 0.00 0.00 50 1013.8
20260502230546 22 291 6.4 12.9 0.00 0.00 0.00 51 1013.9
20260502230053 22 300 4.8 12.9 0.00 0.00 0.00 52 1013.9
20260502225548 22 0 4.8 12.9 0.00 0.00 0.00 54 1014.0
20260502225045 22 77 4.8 17.7 0.00 0.00 0.00 53 1014.0
20260502224549 22 280 4.8 17.7 0.00 0.00 0.00 56 1014.1
20260502224045 22 213 4.8 16.1 0.00 0.00 0.00 56 1014.1
20260502223546 22 302 6.4 16.1 0.00 0.00 0.00 57 1014.3
20260502223055 23 327 3.2 16.1 0.00 0.00 0.00 56 1014.3
20260502222543 22 190 3.2 16.1 0.00 0.00 0.00 58 1014.3
20260502222045 22 309 9.7 16.1 0.00 0.00 0.00 59 1014.4
20260502221601 22 311 6.4 16.1 0.00 0.00 0.00 59 1014.5
20260502221045 22 268 6.4 16.1 0.00 0.00 0.00 60 1014.5
20260502220548 22 289 6.4 19.3 0.00 0.00 0.00 60 1014.5
20260502220053 22 275 8.0 19.3 0.00 0.00 0.00 60 1014.6
20260502215546 22 0 6.4 19.3 0.00 0.00 0.00 61 1014.6
20260502215049 22 306 6.4 14.5 0.00 0.00 0.00 61 1014.6
20260502214603 22 302 3.2 12.9 0.00 0.00 0.00 62 1014.6
20260502214046 22 232 4.8 14.5 0.00 0.00 0.00 61 1014.8
20260502213546 22 322 1.6 14.5 0.00 0.00 0.00 62 1015.0
20260502213055 22 291 4.8 22.5 0.00 0.00 0.00 63 1015.0
20260502212546 21 277 3.2 22.5 0.00 0.00 0.00 64 1015.0